Regional Weather Roundup
Issued by NWS State College, PA

Home | Current Version | Previous Version | Graphics & Text | Print | Product List | Glossary On
Versions: 1 2 3 4 5 6 7 8 9 10 11 12 13 14 15 16 17 18 19 20 21 22 23 24 25 26 27 28 29 30 31 32 33 34 35 36 37 38 39 40 41 42 43 44 45 46 47 48 49 50
000
ASUS41 KCTP 250203
RWRCTP

REGIONAL WEATHER ROUNDUP
NATIONAL WEATHER SERVICE STATE COLLEGE PA
1000 PM EDT THU JUL 24 2014

Note: "fair" indicates few or no clouds below 12,000 feet with no
significant weather and/or obstructions to visibility.

* = STATION THAT DOES NOT REPORT PRECIPITATION /E.G. RAIN...SNOW...ETC/
    THUNDER OR FOG.

PAZ002>004-007>009-013>016-020>023-029>032-250300-
WESTERN PENNSYLVANIA

CITY           SKY/WX    TMP DP  RH WIND       PRES   REMARKS
ERIE           CLEAR     60  51  72 SW3       30.05R
MEADVILLE      CLEAR     59  47  64 N3        30.07R
FRANKLIN*      CLEAR     57  45  62 N3        30.07R
NEW CASTLE       N/A     59  51  74 CALM      30.07R
BEAVER COUNTY  NOT AVBL
BUTLER*        CLEAR     61  50  67 N5        30.05R
PITTSBURGH INT PTCLDY    66  51  58 N9        30.03R
PITTSBURGH     CLEAR     65  51  60 N8        30.01R
INDIANA*       CLEAR     64  54  68 VRB5      30.05R
LATROBE        CLEAR     64  55  72 CALM      30.01R
WASHINGTON CO* CLEAR     63  52  67 N6        30.03R
$$

PAZ004>006-010>012-017>019-024>028-033>037-041-042-045-046-049>053-250300-
CENTRAL PENNSYLVANIA

CITY           SKY/WX    TMP DP  RH WIND       PRES   REMARKS
BRADFORD       CLEAR     54  48  80 CALM      30.05R
DUBOIS         CLEAR     62  50  64 N7        30.02R
CLEARFIELD     CLEAR     58  53  84 N7        30.01R
JOHNSTOWN      CLEAR     62  50  64 N6        30.02R
ALTOONA          N/A     61  56  83 CALM      30.00R
STATE COLLEGE  PTCLDY    64  52  65 N6        29.99R
WILLIAMSPORT   CLEAR     65  52  62 NW3       29.97R
SELINSGROVE    PTCLDY    61  57  87 N5        29.97R
FT INDIANTOWN  MOCLDY    64  55  70 N5        29.96R
CAPITAL CITY   MOCLDY    72  52  49 NE5       29.95R
HARRISBURG     MOCLDY    69  54  58 N3        29.94R
YORK           MOCLDY    61  58  90 CALM      29.95R
$$

PAZ038>040-043-044-047-048-054-055-060>062-067>071-250300-
EASTERN PENNSYLVANIA

CITY           SKY/WX    TMP DP  RH WIND       PRES   REMARKS
SCRANTON       PTCLDY    67  49  52 N8        29.97R
MOUNT POCONO   MOCLDY    59  32  36 NW5       29.99R
ALLENTOWN      MOCLDY    67  53  61 N3        29.94R
QUAKERTOWN*    CLOUDY    68  54  60 N6        29.94R
READING        PTCLDY    69  54  58 N6        29.93R
LANCASTER      PTCLDY    66  53  63 N6        29.94R
COATESVILLE    MOCLDY    68  55  64 N6        29.95R
POTTSTOWN      MOCLDY    69  53  56 N6        29.95R
BLUE BELL      CLOUDY    72  54  53 CALM      29.92R
DOYLESTOWN     CLOUDY    68  54  60 N6        29.92R
WILLOW GROVE   NOT AVBL
NORTH PHILA    CLOUDY    73  54  51 N9        29.93R
PHILADELPHIA   CLOUDY    75  53  46 N12       29.91R
$$



USA.gov is the U.S. government's official web portal to all federal, state and local government web resources and services.